| time (UTC) | temp C | wind direction | speed KPH | gust KPH | rain 1hr cm | rain 24hr cm | rain mn cm | humidity % | barometer mb |
| 20260901005537 | 23 | 0.0 | 0.0 | 0.00 | 0.13 | 0.13 | 95 | 1019.8 | |
| 20260901004517 | 23 | 0.0 | 0.0 | 0.00 | 0.13 | 0.13 | 94 | 1019.8 | |
| 20260901003517 | 23 | 0.0 | 0.0 | 0.00 | 0.13 | 0.13 | 93 | 1019.7 | |
| 20260901002517 | 23 | 0.0 | 0.0 | 0.00 | 0.13 | 0.13 | 93 | 1019.6 | |
| 20260901001517 | 24 | 0.0 | 0.0 | 0.00 | 0.13 | 0.13 | 92 | 1019.6 | |
| 20260901000537 | 24 | 0.0 | 0.0 | 0.00 | 0.13 | 0.13 | 90 | 1019.5 | |
| 20260831235517 | 25 | 0.0 | 0.0 | 0.00 | 0.13 | 0.13 | 89 | 1019.4 | |
| 20260831234617 | 25 | 0.0 | 0.0 | 0.00 | 0.13 | 0.13 | 89 | 1019.5 | |
| 20260831233537 | 26 | 0.0 | 0.0 | 0.00 | 0.13 | 0.13 | 86 | 1019.4 | |
| 20260831232517 | 27 | 0.0 | 0.0 | 0.00 | 0.13 | 0.13 | 84 | 1019.6 | |
| 20260831231537 | 28 | 0.0 | 0.0 | 0.00 | 0.13 | 0.13 | 81 | 1019.6 | |
| 20260831230557 | 30 | 0.0 | 0.0 | 0.00 | 0.13 | 0.13 | 78 | 1019.7 | |
| 20260831225557 | 30 | 0.0 | 0.0 | 0.00 | 0.13 | 0.13 | 77 | 1019.8 | |
| 20260831224537 | 31 | 0.0 | 0.0 | 0.00 | 0.13 | 0.13 | 74 | 1019.9 | |
| 20260831223556 | 31 | 0.0 | 0.0 | 0.00 | 0.13 | 0.13 | 72 | 1020.0 | |
| 20260831222537 | 31 | 0.0 | 1.6 | 0.00 | 0.13 | 0.13 | 73 | 1020.2 | |
| 20260831221516 | 31 | 0.0 | 3.2 | 0.00 | 0.13 | 0.13 | 69 | 1020.2 | |
| 20260831220617 | 30 | 0.0 | 1.6 | 0.00 | 0.13 | 0.13 | 72 | 1020.3 | |
| 20260831215516 | 30 | 315 | 1.6 | 4.8 | 0.00 | 0.13 | 0.13 | 71 | 1020.3 |
| 20260831214536 | 30 | 0.0 | 3.2 | 0.00 | 0.13 | 0.13 | 74 | 1020.3 | |
| 20260831213556 | 29 | 0.0 | 3.2 | 0.00 | 0.13 | 0.13 | 74 | 1020.2 | |
| 20260831212536 | 28 | 0.0 | 6.4 | 0.00 | 0.13 | 0.13 | 77 | 1020.3 | |
| 20260831211617 | 28 | 0.0 | 3.2 | 0.00 | 0.13 | 0.13 | 81 | 1020.3 | |
| 20260831210516 | 26 | 315 | 1.6 | 4.8 | 0.00 | 0.13 | 0.13 | 85 | 1020.2 |
| 20260831205516 | 26 | 0.0 | 1.6 | 0.00 | 0.13 | 0.13 | 87 | 1020.3 | |
| 20260831204616 | 26 | 0.0 | 6.4 | 0.00 | 0.13 | 0.13 | 87 | 1020.3 | |
| 20260831203536 | 26 | 0.0 | 4.8 | 0.00 | 0.13 | 0.13 | 88 | 1020.6 | |
| 20260831202536 | 26 | 0.0 | 1.6 | 0.00 | 0.13 | 0.13 | 87 | 1020.8 | |
| 20260831201516 | 27 | 0.0 | 4.8 | 0.00 | 0.13 | 0.13 | 84 | 1021.0 | |
| 20260831200516 | 29 | 0.0 | 1.6 | 0.00 | 0.13 | 0.13 | 75 | 1020.9 | |
| 20260831195516 | 30 | 45 | 3.2 | 12.9 | 0.00 | 0.13 | 0.13 | 68 | 1020.8 |
| 20260831194516 | 31 | 23 | 3.2 | 9.7 | 0.00 | 0.13 | 0.13 | 67 | 1020.8 |
| 20260831193516 | 31 | 248 | 1.6 | 8.0 | 0.00 | 0.13 | 0.13 | 67 | 1020.6 |
| 20260831192516 | 31 | 0.0 | 4.8 | 0.00 | 0.13 | 0.13 | 66 | 1020.6 | |
| 20260831191536 | 32 | 0.0 | 1.6 | 0.00 | 0.13 | 0.13 | 65 | 1020.6 | |
| 20260831190516 | 32 | 0.0 | 3.2 | 0.00 | 0.15 | 0.13 | 66 | 1020.8 | |
| 20260831185516 | 33 | 23 | 1.6 | 8.0 | 0.00 | 0.15 | 0.13 | 64 | 1020.9 |
| 20260831184536 | 32 | 45 | 1.6 | 4.8 | 0.00 | 0.15 | 0.13 | 68 | 1021.0 |
| 20260831183516 | 32 | 0.0 | 3.2 | 0.00 | 0.15 | 0.13 | 67 | 1021.0 | |
| 20260831182516 | 32 | 248 | 1.6 | 4.8 | 0.00 | 0.15 | 0.13 | 65 | 1021.3 |
| 20260831181536 | 32 | 0.0 | 4.8 | 0.00 | 0.15 | 0.13 | 66 | 1021.4 | |
| 20260831180556 | 32 | 0.0 | 4.8 | 0.00 | 0.15 | 0.13 | 68 | 1021.5 | |
| 20260831175516 | 32 | 0.0 | 9.7 | 0.00 | 0.15 | 0.13 | 68 | 1021.6 | |
| 20260831174516 | 31 | 0.0 | 6.4 | 0.00 | 0.15 | 0.13 | 68 | 1021.7 | |
| 20260831173656 | 31 | 315 | 1.6 | 4.8 | 0.00 | 0.15 | 0.13 | 70 | 1021.8 |
| 20260831172556 | 31 | 45 | 1.6 | 4.8 | 0.03 | 0.15 | 0.13 | 70 | 1021.8 |
| 20260831171536 | 31 | 0.0 | 0.0 | 0.03 | 0.15 | 0.13 | 73 | 1021.9 | |
| 20260831170536 | 30 | 23 | 1.6 | 6.4 | 0.05 | 0.15 | 0.13 | 71 | 1021.9 |
| 20260831165516 | 30 | 248 | 3.2 | 9.7 | 0.05 | 0.15 | 0.13 | 72 | 1021.9 |
| 20260831164516 | 30 | 45 | 1.6 | 4.8 | 0.05 | 0.15 | 0.13 | 76 | 1022.0 |
| 20260831163556 | 30 | 0.0 | 4.8 | 0.05 | 0.15 | 0.13 | 76 | 1022.1 | |
| 20260831162516 | 30 | 0.0 | 1.6 | 0.03 | 0.13 | 0.10 | 78 | 1022.2 | |
| 20260831161536 | 29 | 0.0 | 3.2 | 0.03 | 0.13 | 0.10 | 79 | 1022.3 | |
| 20260831155616 | 28 | 0.0 | 4.8 | 0.00 | 0.10 | 0.08 | 78 | 1022.3 | |
| 20260831154516 | 28 | 0.0 | 6.4 | 0.00 | 0.10 | 0.08 | 80 | 1022.3 | |
| 20260831153516 | 28 | 0.0 | 4.8 | 0.03 | 0.10 | 0.08 | 80 | 1022.3 | |
| 20260831152516 | 28 | 315 | 1.6 | 4.8 | 0.03 | 0.10 | 0.08 | 81 | 1022.4 |
| 20260831151536 | 27 | 23 | 1.6 | 8.0 | 0.03 | 0.10 | 0.08 | 83 | 1022.3 |
| 20260831150536 | 27 | 0.0 | 1.6 | 0.03 | 0.10 | 0.08 | 83 | 1022.4 | |
| 20260831145516 | 27 | 23 | 1.6 | 6.4 | 0.03 | 0.10 | 0.08 | 85 | 1022.6 |
| 20260831144556 | 27 | 0.0 | 3.2 | 0.03 | 0.10 | 0.08 | 85 | 1022.5 | |
| 20260831143516 | 26 | 0.0 | 1.6 | 0.03 | 0.08 | 0.05 | 88 | 1022.5 | |
| 20260831142516 | 26 | 0.0 | 3.2 | 0.03 | 0.08 | 0.05 | 88 | 1022.4 | |
| 20260831141516 | 26 | 0.0 | 4.8 | 0.03 | 0.08 | 0.05 | 88 | 1022.4 | |
| 20260831140515 | 25 | 0.0 | 4.8 | 0.03 | 0.08 | 0.05 | 91 | 1022.3 | |
| 20260831135536 | 25 | 0.0 | 4.8 | 0.03 | 0.08 | 0.05 | 93 | 1022.3 | |
| 20260831134515 | 24 | 0.0 | 3.2 | 0.03 | 0.08 | 0.05 | 95 | 1022.2 | |
| 20260831133616 | 23 | 23 | 1.6 | 4.8 | 0.00 | 0.05 | 0.03 | 98 | 1022.3 |
| 20260831132536 | 23 | 23 | 1.6 | 6.4 | 0.00 | 0.05 | 0.03 | 100 | 1022.2 |
| 20260831131636 | 22 | 0.0 | 3.2 | 0.00 | 0.05 | 0.03 | 100 | 1022.2 | |
| 20260831130555 | 22 | 0.0 | 1.6 | 0.00 | 0.05 | 0.03 | 100 | 1022.2 | |
| 20260831125515 | 21 | 0.0 | 0.0 | 0.00 | 0.05 | 0.03 | 100 | 1022.2 | |
| 20260831124515 | 21 | 0.0 | 0.0 | 0.00 | 0.05 | 0.03 | 100 | 1022.2 | |
| 20260831123535 | 20 | 0.0 | 0.0 | 0.00 | 0.05 | 0.03 | 100 | 1022.2 | |
| 20260831122535 | 20 | 0.0 | 0.0 | 0.00 | 0.05 | 0.03 | 99 | 1022.1 | |
| 20260831121515 | 19 | 0.0 | 0.0 | 0.00 | 0.05 | 0.03 | 99 | 1022.2 | |
| 20260831115535 | 18 | 0.0 | 0.0 | 0.00 | 0.05 | 0.03 | 99 | 1022.0 | |
| 20260831114515 | 18 | 0.0 | 0.0 | 0.00 | 0.05 | 0.03 | 99 | 1022.0 | |
| 20260831113555 | 18 | 0.0 | 0.0 | 0.00 | 0.05 | 0.03 | 99 | 1022.0 | |
| 20260831112515 | 18 | 0.0 | 0.0 | 0.00 | 0.05 | 0.03 | 99 | 1021.9 | |
| 20260831111535 | 17 | 0.0 | 0.0 | 0.00 | 0.05 | 0.03 | 99 | 1022.1 | |
| 20260831110515 | 17 | 0.0 | 0.0 | 0.00 | 0.05 | 0.03 | 99 | 1022.0 | |
| 20260831105515 | 17 | 0.0 | 0.0 | 0.00 | 0.05 | 0.03 | 98 | 1021.9 | |
| 20260831104515 | 17 | 0.0 | 0.0 | 0.03 | 0.05 | 0.03 | 99 | 1022.0 | |
| 20260831103515 | 17 | 0.0 | 0.0 | 0.03 | 0.05 | 0.03 | 99 | 1022.0 | |
| 20260831102515 | 17 | 0.0 | 0.0 | 0.03 | 0.05 | 0.03 | 99 | 1022.0 | |
| 20260831101535 | 17 | 0.0 | 0.0 | 0.03 | 0.05 | 0.03 | 99 | 1021.9 | |
| 20260831100535 | 17 | 0.0 | 0.0 | 0.03 | 0.05 | 0.03 | 99 | 1021.8 | |
| 20260831095515 | 17 | 0.0 | 0.0 | 0.03 | 0.05 | 0.03 | 98 | 1021.9 | |
| 20260831094638 | 17 | 0.0 | 0.0 | 0.00 | 0.03 | 0.00 | 98 | 1021.8 | |
| 20260831093517 | 17 | 0.0 | 0.0 | 0.00 | 0.03 | 0.00 | 98 | 1021.7 | |
| 20260831092517 | 18 | 0.0 | 0.0 | 0.00 | 0.03 | 0.00 | 98 | 1021.7 | |
| 20260831091517 | 18 | 0.0 | 0.0 | 0.00 | 0.03 | 0.00 | 99 | 1021.7 | |
| 20260831090537 | 18 | 0.0 | 0.0 | 0.00 | 0.03 | 0.00 | 98 | 1021.6 | |
| 20260831085537 | 18 | 0.0 | 0.0 | 0.00 | 0.03 | 0.00 | 98 | 1021.6 | |
| 20260831084659 | 18 | 0.0 | 0.0 | 0.00 | 0.03 | 0.00 | 98 | 1021.6 | |
| 20260831083637 | 18 | 0.0 | 0.0 | 0.00 | 0.03 | 0.00 | 98 | 1021.7 | |
| 20260831082517 | 18 | 0.0 | 0.0 | 0.00 | 0.03 | 0.00 | 99 | 1021.7 | |
| 20260831081517 | 18 | 0.0 | 0.0 | 0.00 | 0.03 | 0.00 | 98 | 1021.7 | |
| 20260831080517 | 18 | 0.0 | 0.0 | 0.00 | 0.03 | 0.00 | 98 | 1021.7 | |
| 20260831075537 | 18 | 0.0 | 0.0 | 0.00 | 0.03 | 0.00 | 98 | 1021.6 | |
| 20260831074537 | 18 | 0.0 | 0.0 | 0.00 | 0.03 | 0.00 | 98 | 1021.6 | |
| 20260831073517 | 18 | 0.0 | 0.0 | 0.00 | 0.03 | 0.00 | 98 | 1021.6 | |
| 20260831072517 | 18 | 0.0 | 0.0 | 0.00 | 0.03 | 0.00 | 98 | 1021.6 | |
| 20260831071557 | 18 | 0.0 | 0.0 | 0.00 | 0.03 | 0.00 | 98 | 1021.6 | |
| 20260831070617 | 18 | 0.0 | 0.0 | 0.00 | 0.03 | 0.00 | 98 | 1021.7 | |
| 20260831065557 | 18 | 0.0 | 0.0 | 0.00 | 0.03 | 0.00 | 98 | 1021.7 | |
| 20260831064537 | 18 | 0.0 | 0.0 | 0.00 | 0.03 | 0.00 | 98 | 1021.7 | |
| 20260831063517 | 18 | 0.0 | 0.0 | 0.00 | 0.03 | 0.00 | 98 | 1021.6 | |
| 20260831062638 | 18 | 0.0 | 0.0 | 0.00 | 0.03 | 0.00 | 98 | 1021.7 | |
| 20260831061638 | 18 | 0.0 | 0.0 | 0.00 | 0.03 | 0.00 | 98 | 1021.7 | |
| 20260831060517 | 19 | 0.0 | 0.0 | 0.00 | 0.03 | 0.00 | 98 | 1021.9 | |
| 20260831055517 | 19 | 0.0 | 0.0 | 0.00 | 0.03 | 0.00 | 98 | 1021.9 | |
| 20260831054517 | 19 | 0.0 | 0.0 | 0.00 | 0.03 | 0.00 | 98 | 1021.9 | |
| 20260831053638 | 18 | 0.0 | 0.0 | 0.00 | 0.03 | 0.00 | 97 | 1021.9 | |
| 20260831052557 | 19 | 0.0 | 0.0 | 0.00 | 0.03 | 0.00 | 97 | 1021.8 | |
| 20260831051537 | 19 | 0.0 | 0.0 | 0.00 | 0.03 | 0.00 | 97 | 1021.9 | |
| 20260831050537 | 19 | 0.0 | 0.0 | 0.00 | 0.03 | 0.00 | 97 | 1022.0 | |
| 20260831045517 | 19 | 0.0 | 0.0 | 0.00 | 0.03 | 0.00 | 97 | 1022.0 | |
| 20260831044557 | 20 | 0.0 | 0.0 | 0.00 | 0.03 | 0.00 | 97 | 1021.9 | |
| 20260831043617 | 20 | 0.0 | 0.0 | 0.00 | 0.05 | 0.00 | 97 | 1022.0 | |
| 20260831042516 | 20 | 0.0 | 0.0 | 0.00 | 0.05 | 0.00 | 98 | 1021.9 | |
| 20260831041516 | 20 | 0.0 | 0.0 | 0.00 | 0.05 | 0.00 | 97 | 1021.8 | |
| 20260831040536 | 20 | 0.0 | 0.0 | 0.00 | 0.05 | 0.00 | 97 | 1021.8 | |
| 20260831035557 | 20 | 0.0 | 0.0 | 0.00 | 0.05 | 0.05 | 97 | 1022.0 | |
| 20260831034537 | 20 | 0.0 | 0.0 | 0.00 | 0.05 | 0.05 | 97 | 1022.0 | |
| 20260831033557 | 20 | 0.0 | 0.0 | 0.00 | 0.05 | 0.05 | 97 | 1022.1 | |
| 20260831032517 | 20 | 0.0 | 0.0 | 0.00 | 0.05 | 0.05 | 97 | 1022.1 | |
| 20260831031557 | 20 | 0.0 | 0.0 | 0.00 | 0.05 | 0.05 | 97 | 1022.2 | |
| 20260831030517 | 20 | 0.0 | 0.0 | 0.00 | 0.05 | 0.05 | 96 | 1022.2 | |
| 20260831025517 | 20 | 0.0 | 0.0 | 0.00 | 0.05 | 0.05 | 96 | 1022.3 | |
| 20260831024537 | 20 | 0.0 | 0.0 | 0.00 | 0.05 | 0.05 | 96 | 1022.3 | |
| 20260831023557 | 21 | 0.0 | 0.0 | 0.00 | 0.05 | 0.05 | 96 | 1022.4 | |
| 20260831022517 | 21 | 0.0 | 0.0 | 0.00 | 0.05 | 0.05 | 96 | 1022.4 | |
| 20260831021517 | 21 | 0.0 | 0.0 | 0.00 | 0.05 | 0.05 | 95 | 1022.2 | |
| 20260831020517 | 21 | 0.0 | 0.0 | 0.00 | 0.05 | 0.05 | 95 | 1022.0 | |
| 20260831015517 | 21 | 0.0 | 0.0 | 0.00 | 0.05 | 0.05 | 94 | 1022.0 | |
| 20260831014637 | 21 | 0.0 | 0.0 | 0.00 | 0.05 | 0.05 | 94 | 1022.0 | |
| 20260831013517 | 21 | 0.0 | 0.0 | 0.00 | 0.05 | 0.05 | 94 | 1021.9 | |
| 20260831012557 | 22 | 0.0 | 0.0 | 0.00 | 0.05 | 0.05 | 93 | 1021.9 | |
| 20260831011517 | 22 | 0.0 | 0.0 | 0.00 | 0.05 | 0.05 | 93 | 1021.9 | |
| 20260831010517 | 22 | 0.0 | 0.0 | 0.00 | 0.05 | 0.05 | 92 | 1021.8 |